This is the latest recevied weather packets stored in our database for station/object KN6WGU. If no packets are shown the sender has not sent any weather packets the latest 10 day(s).
| Time | Temp. | Humidity | Pressure | Rain* | Wind** | Luminosity | Snow |
|---|---|---|---|---|---|---|---|
| 1787578598 | 17.78° C | 78% | 1008.9 hPa | 0 mm | - | 108 W/m² | - |
| 1787578296 | 17.22° C | 78% | 1008.9 hPa | 0 mm | - | 93 W/m² | - |
| 1787577987 | 16.67° C | 80% | 1008.8 hPa | 0 mm | - | 93 W/m² | - |
| 1787577682 | 16.67° C | 79% | 1008.6 hPa | 0 mm | - | 87 W/m² | - |
| 1787577378 | 16.67° C | 80% | 1008.8 hPa | 0 mm | - | 101 W/m² | - |
| 1787577074 | 16.67° C | 79% | 1008.6 hPa | 0 mm | - | 114 W/m² | - |
| 1787576770 | 16.67° C | 79% | 1008.7 hPa | 0 mm | - | 93 W/m² | - |
| 1787576465 | 16.67° C | 80% | 1008.7 hPa | 0 mm | - | 97 W/m² | - |
| 1787576161 | 16.11° C | 80% | 1008.5 hPa | 0 mm | - | 84 W/m² | - |
| 1787575855 | 16.11° C | 80% | 1008.8 hPa | 0 mm | - | 68 W/m² | - |
| 1787575551 | 16.11° C | 81% | 1008.6 hPa | 0 mm | - | 82 W/m² | - |
| 1787575246 | 16.11° C | 80% | 1008.7 hPa | 0 mm | - | 87 W/m² | - |
| 1787574941 | 16.11° C | 79% | 1008.8 hPa | 0 mm | - | 63 W/m² | - |
| 1787574637 | 15.56° C | 80% | 1008.6 hPa | 0 mm | - | 65 W/m² | - |
| 1787574332 | 15.56° C | 80% | 1008.7 hPa | 0 mm | - | 58 W/m² | - |
| 1787574030 | 15.56° C | 81% | 1008.6 hPa | 0 mm | - | 39 W/m² | - |
| 1787573726 | 15° C | 81% | 1008.7 hPa | 0 mm | - | 52 W/m² | - |
| 1787573420 | 15° C | 82% | 1008.5 hPa | 0 mm | - | 49 W/m² | - |
| 1787573117 | 15° C | 82% | 1008.7 hPa | 0 mm | - | 39 W/m² | - |
| 1787572813 | 15.56° C | 82% | 1008.5 hPa | 0 mm | - | 20 W/m² | - |
| 1787572507 | 15.56° C | 81% | 1008.5 hPa | 0 mm | - | 20 W/m² | - |
| 1787572201 | 15.56° C | 80% | 1008.5 hPa | 0 mm | - | 28 W/m² | - |
| 1787571896 | 15.56° C | 80% | 1008.4 hPa | 0 mm | - | 27 W/m² | - |
| 1787571591 | 15.56° C | 80% | 1008.6 hPa | 0 mm | - | 23 W/m² | - |
| 1787571290 | 15.56° C | 80% | 1008.4 hPa | 0 mm | - | 24 W/m² | - |
* Rain latest hour (hover to see other rain measurements)
** Current wind speed in m/s (hover to see current wind gust speed)